Location: Clanezzo
(45.7500°N, 9.6000°E)
Time: 03:25:10
(UTC+00:00)

Cosmos 2082 Rocket - Pass Details

Date: 12 May 2021
Orbit: 834 x 852 km, 71.0° (Epoch: 18 June)

Event Time Altitude Azimuth Distance (km) Brightness Sun altitude
Rises 21:22:10 0° 330° (NNW) 3,392 6.9 -20.7°
Reaches altitude 10° 21:24:39 10° 326° (NNW) 2,454 5.8 -20.9°
Maximum altitude 21:30:07 56° 250° (WSW) 989 2.5 -21.4°
Enters shadow 21:32:06 37° 193° (SSW) 1,276 2.7 -21.5°
